User: anonymous   Login
Location: Lake Runnemede Observatory
(43.4843°N, 72.3851°W)
Time: 21:03:27
(UTC-04:00)
Language:

SPOT 5 - Orbit

View from above orbital plane
View from above orbital plane
View from above satellite
View from above satellite

Ground track
Ground track

The orbit data is extracted from the following two-line orbital elements,

1 27421U 02021A   15211.86975980  .00000036  00000-0  35956-4 0  9994
2 27421 098.5089 265.8926 0001233 101.2149 358.3260 14.20899941686332
Epoch (UTC): 30 July 2015 20:52:27
Eccentricity: 0.0001233
inclination: 98.5089°
perigee height: 821 km
apogee height: 823 km
right ascension of ascending node: 265.8926°
argument of perigee: 101.2149°
revolutions per day: 14.20899941
mean anomaly at epoch: 358.3260°
orbit number at epoch: 68633

The dashed part of the orbit path shows where the satellite is in the earth's shadow,  

DLR